Radiation Dose at Monitoring Post of Fukushima Daini Nuclear Power Station
Date,Time,MP-1(microSv/h),MP-2(microSv/h),MP-3(microSv/h),MP-4(microSv/h),MP-5(microSv/h),MP-6(microSv/h),MP-7(microSv/h),Wind Direction,Wind Velocity(m/s),Rain
2018/09/04,00:00,0.306,0.187,0.307,0.296,0.281,0.151,0.093,south-southwest,1.8,No
2018/09/04,00:10,0.304,0.191,0.306,0.296,0.281,0.152,0.094,south-southwest,2.0,No
2018/09/04,00:20,0.307,0.189,0.306,0.294,0.283,0.151,0.093,south,1.5,No
2018/09/04,00:30,0.304,0.189,0.308,0.298,0.279,0.152,0.094,south,1.5,No
2018/09/04,00:40,0.305,0.190,0.307,0.296,0.280,0.152,0.093,south-southeast,2.1,No
2018/09/04,00:50,0.308,0.189,0.308,0.296,0.281,0.151,0.094,south,2.2,No
2018/09/04,01:00,0.304,0.190,0.307,0.297,0.279,0.152,0.094,south-southeast,2.3,No
2018/09/04,01:10,0.307,0.189,0.306,0.295,0.283,0.151,0.093,south-southeast,1.7,No
2018/09/04,01:20,0.305,0.190,0.308,0.297,0.280,0.152,0.094,south,1.4,No
2018/09/04,01:30,0.307,0.189,0.305,0.296,0.281,0.151,0.093,south,2.2,No
2018/09/04,01:40,0.306,0.190,0.309,0.297,0.282,0.152,0.094,south,2.4,No
2018/09/04,01:50,0.305,0.188,0.308,0.296,0.279,0.153,0.094,south,2.4,No
2018/09/04,02:00,0.306,0.189,0.306,0.295,0.282,0.151,0.093,south,2.3,No
2018/09/04,02:10,0.305,0.190,0.308,0.297,0.280,0.153,0.094,south-southwest,2.3,No
2018/09/04,02:20,0.306,0.189,0.305,0.296,0.280,0.152,0.094,south,3.8,No
2018/09/04,02:30,0.305,0.190,0.308,0.296,0.282,0.151,0.094,south,4.9,No
2018/09/04,02:40,0.305,0.189,0.307,0.297,0.281,0.152,0.095,south,5.1,No
2018/09/04,02:50,0.308,0.191,0.306,0.296,0.282,0.151,0.094,south,6.7,No
2018/09/04,03:00,0.305,0.190,0.309,0.298,0.282,0.151,0.094,south,4.8,No
2018/09/04,03:10,0.305,0.188,0.305,0.297,0.279,0.151,0.094,south,5.0,No
2018/09/04,03:20,0.306,0.189,0.308,0.296,0.283,0.152,0.094,south-southwest,4.8,No
2018/09/04,03:30,0.305,0.189,0.307,0.297,0.281,0.153,0.093,south-southwest,6.1,No
2018/09/04,03:40,0.308,0.190,0.307,0.294,0.282,0.151,0.094,south-southwest,5.0,No
2018/09/04,03:50,0.305,0.189,0.308,0.297,0.283,0.152,0.094,south-southwest,4.6,No
2018/09/04,04:00,0.306,0.191,0.306,0.298,0.280,0.152,0.094,south,2.6,No
2018/09/04,04:10,0.307,0.188,0.308,0.294,0.282,0.152,0.094,south-southwest,4.2,No
2018/09/04,04:20,0.305,0.189,0.306,0.297,0.279,0.152,0.094,south-southwest,5.4,No
2018/09/04,04:30,0.306,0.189,0.307,0.296,0.281,0.151,0.095,south,5.5,No
2018/09/04,04:40,0.305,0.189,0.308,0.297,0.283,0.152,0.093,south,4.8,No
2018/09/04,04:50,0.305,0.190,0.306,0.297,0.279,0.152,0.094,south,4.7,No
2018/09/04,05:00,0.308,0.188,0.309,0.294,0.283,0.152,0.094,south,4.5,No
2018/09/04,05:10,0.305,0.191,0.306,0.298,0.281,0.152,0.094,south,5.6,No
2018/09/04,05:20,0.306,0.189,0.308,0.297,0.281,0.151,0.095,south,5.2,No
2018/09/04,05:30,0.305,0.190,0.307,0.296,0.281,0.151,0.093,south,6.4,No
2018/09/04,05:40,0.305,0.189,0.306,0.295,0.279,0.152,0.094,south,5.4,No
2018/09/04,05:50,0.309,0.189,0.309,0.296,0.284,0.152,0.094,south,3.1,No
2018/09/04,06:00,0.304,0.188,0.307,0.298,0.279,0.153,0.093,south-southwest,2.7,No
2018/09/04,06:10,0.306,0.189,0.308,0.297,0.280,0.151,0.094,south-southeast,4.0,No
2018/09/04,06:20,0.306,0.190,0.309,0.295,0.282,0.152,0.093,south-southwest,4.7,No
2018/09/04,06:30,0.305,0.189,0.306,0.297,0.280,0.152,0.093,south-southwest,5.0,No
2018/09/04,06:40,0.307,0.190,0.310,0.294,0.279,0.151,0.093,south-southwest,4.2,No
2018/09/04,06:50,0.308,0.190,0.308,0.295,0.283,0.152,0.092,south-southwest,3.8,No
2018/09/04,07:00,0.305,0.189,0.306,0.298,0.281,0.151,0.094,south-southwest,2.2,No
2018/09/04,07:10,0.309,0.191,0.308,0.297,0.279,0.151,0.093,south,1.8,No
2018/09/04,07:20,0.308,0.190,0.307,0.295,0.281,0.153,0.093,south,2.6,No
2018/09/04,07:30,0.305,0.189,0.306,0.298,0.281,0.152,0.093,south,3.4,No
2018/09/04,07:40,0.305,0.189,0.308,0.296,0.279,0.151,0.094,south,4.2,No
2018/09/04,07:50,0.308,0.190,0.307,0.292,0.278,0.151,0.094,south,4.8,No
2018/09/04,08:00,0.305,0.189,0.304,0.297,0.282,0.151,0.092,south,5.8,No
2018/09/04,08:10,0.303,0.187,0.307,0.297,0.282,0.152,0.093,south,5.7,No
2018/09/04,08:20,0.308,0.188,0.308,0.295,0.280,0.150,0.092,south,5.1,No
2018/09/04,08:30,0.307,0.190,0.305,0.294,0.278,0.151,0.093,south,4.9,No
2018/09/04,08:40,0.306,0.190,0.304,0.292,0.277,0.152,0.091,south,6.4,No
2018/09/04,08:50,0.304,0.189,0.306,0.294,0.278,0.152,0.093,south,7.8,No
2018/09/04,09:00,0.304,0.187,0.308,0.298,0.283,0.151,0.093,south,8.9,No
2018/09/04,09:10,0.303,0.187,0.306,0.297,0.280,0.151,0.093,south,8.1,No
2018/09/04,09:20,0.307,0.188,0.305,0.295,0.279,0.152,0.092,south,6.9,No
2018/09/04,09:30,0.306,0.190,0.305,0.293,0.278,0.151,0.092,south,6.7,No
2018/09/04,09:40,0.304,0.190,0.309,0.297,0.280,0.152,0.093,south,7.3,No
2018/09/04,09:50,0.303,0.188,0.307,0.297,0.282,0.150,0.093,south,6.8,No
2018/09/04,10:00,0.305,0.187,0.304,0.295,0.281,0.150,0.093,south,7.1,No
2018/09/04,10:10,0.308,0.187,0.303,0.293,0.279,0.151,0.092,south,6.8,No
2018/09/04,10:20,0.306,0.188,0.307,0.295,0.278,0.152,0.092,south,6.5,Yes
2018/09/04,10:30,0.302,0.189,0.309,0.298,0.280,0.151,0.093,south,5.7,No
2018/09/04,10:40,0.303,0.188,0.305,0.295,0.283,0.151,0.093,south,7.1,Yes
2018/09/04,10:50,0.307,0.189,0.306,0.293,0.279,0.152,0.092,south,6.8,Yes
2018/09/04,11:00,0.305,0.189,0.309,0.298,0.278,0.152,0.092,south,6.3,Yes
2018/09/04,11:10,0.305,0.189,0.306,0.297,0.281,0.150,0.092,south,6.1,Yes
2018/09/04,11:20,0.304,0.187,0.302,0.294,0.280,0.150,0.093,south,5.9,Yes
2018/09/04,11:30,0.307,0.187,0.307,0.294,0.279,0.151,0.092,south,6.3,Yes
2018/09/04,11:40,0.306,0.189,0.305,0.296,0.276,0.151,0.093,south,4.9,Yes
2018/09/04,11:50,0.302,0.188,0.304,0.294,0.280,0.149,0.092,south-southwest,4.1,Yes
2018/09/04,12:00,0.302,0.185,0.301,0.289,0.278,0.148,0.091,south-southwest,4.8,Yes
2018/09/04,12:10,0.302,0.187,0.304,0.292,0.276,0.150,0.091,south-southwest,5.8,Yes
2018/09/04,12:20,0.301,0.188,0.301,0.293,0.274,0.149,0.091,south-southwest,4.8,No
2018/09/04,12:30,0.299,0.187,0.299,0.291,0.278,0.148,0.092,south-southwest,5.2,Yes
2018/09/04,12:40,0.301,0.186,0.303,0.288,0.279,0.148,0.092,south-southwest,7.7,Yes
2018/09/04,12:50,0.303,0.184,0.303,0.293,0.277,0.149,0.091,south-southwest,7.6,Yes
2018/09/04,13:00,0.303,0.185,0.301,0.292,0.276,0.150,0.091,south,6.4,Yes
2018/09/04,13:10,0.301,0.185,0.299,0.290,0.275,0.149,0.092,south-southwest,7.8,Yes
2018/09/04,13:20,0.299,0.185,0.299,0.289,0.275,0.148,0.092,south,7.7,No
2018/09/04,13:30,0.299,0.185,0.301,0.288,0.274,0.148,0.091,south,8.7,No
2018/09/04,13:40,0.300,0.187,0.304,0.293,0.279,0.149,0.092,south,10.4,No
2018/09/04,13:50,0.301,0.188,0.303,0.294,0.279,0.150,0.092,south,13.4,No
2018/09/04,14:00,0.303,0.187,0.301,0.292,0.278,0.150,0.092,south,12.0,No
2018/09/04,14:10,0.303,0.187,0.299,0.288,0.276,0.149,0.091,south,15.5,No
2018/09/04,14:20,0.298,0.185,0.305,0.290,0.275,0.149,0.091,south,13.4,No
2018/09/04,14:30,0.299,0.185,0.303,0.295,0.278,0.149,0.092,south,15.1,No
2018/09/04,14:40,0.302,0.187,0.300,0.293,0.279,0.149,0.092,south,15.0,No
2018/09/04,14:50,0.305,0.188,0.299,0.291,0.279,0.150,0.092,south,14.3,No
2018/09/04,15:00,0.303,0.187,0.301,0.290,0.277,0.150,0.091,south,17.1,No
2018/09/04,15:10,0.302,0.187,0.305,0.291,0.277,0.150,0.091,south,16.3,No
2018/09/04,15:20,0.301,0.186,0.304,0.294,0.276,0.149,0.091,south,15.0,No
2018/09/04,15:30,0.300,0.185,0.302,0.294,0.279,0.149,0.093,south,14.0,No
2018/09/04,15:40,0.302,0.186,0.300,0.292,0.280,0.149,0.092,south,18.3,No
2018/09/04,15:50,0.305,0.189,0.302,0.290,0.278,0.150,0.091,south,17.3,No
2018/09/04,16:00,0.304,0.188,0.305,0.292,0.278,0.151,0.091,south,15.6,No
2018/09/04,16:10,0.301,0.186,0.304,0.295,0.276,0.150,0.091,south,16.4,No
2018/09/04,16:20,0.300,0.186,0.300,0.294,0.280,0.150,0.092,south,14.5,No
2018/09/04,16:30,0.304,0.187,0.300,0.291,0.279,0.150,0.092,south,16.3,No
2018/09/04,16:40,0.306,0.189,0.304,0.292,0.278,0.150,0.092,south,15.7,No
2018/09/04,16:50,0.302,0.188,0.303,0.294,0.275,0.150,0.091,south,13.9,No
2018/09/04,17:00,0.302,0.187,0.303,0.294,0.278,0.149,0.092,south,13.1,No
2018/09/04,17:10,0.300,0.185,0.301,0.293,0.280,0.150,0.093,south,14.4,No
2018/09/04,17:20,0.306,0.188,0.301,0.292,0.279,0.151,0.092,south,16.0,No
2018/09/04,17:30,0.305,0.188,0.306,0.291,0.276,0.150,0.092,south-southeast,12.2,No
2018/09/04,17:40,0.303,0.189,0.305,0.295,0.277,0.151,0.091,south,17.4,No
2018/09/04,17:50,0.301,0.187,0.301,0.295,0.280,0.150,0.092,south,19.6,No
2018/09/04,18:00,0.304,0.187,0.300,0.292,0.279,0.150,0.093,south-southeast,20.2,No
2018/09/04,18:10,0.306,0.188,0.304,0.291,0.277,0.150,0.093,south-southeast,20.9,No
2018/09/04,18:20,0.304,0.188,0.306,0.293,0.276,0.151,0.092,south-southeast,22.5,No
2018/09/04,18:30,0.302,0.187,0.303,0.295,0.280,0.150,0.092,south-southeast,22.2,Yes
2018/09/04,18:40,0.301,0.187,0.302,0.293,0.280,0.150,0.093,south,15.6,Yes
2018/09/04,18:50,0.306,0.188,0.304,0.292,0.278,0.151,0.092,south,15.7,Yes
2018/09/04,19:00,0.305,0.189,0.305,0.293,0.276,0.151,0.091,south,17.9,Yes
2018/09/04,19:10,0.304,0.187,0.304,0.294,0.278,0.151,0.092,south,14.4,No
2018/09/04,19:20,0.301,0.187,0.302,0.294,0.280,0.150,0.093,south,17.2,No
2018/09/04,19:30,0.304,0.188,0.303,0.293,0.279,0.151,0.092,south,17.8,Yes
2018/09/04,19:40,0.307,0.190,0.304,0.293,0.277,0.151,0.091,south,14.4,Yes
2018/09/04,19:50,0.305,0.188,0.305,0.295,0.278,0.151,0.092,south,16.9,Yes
2018/09/04,20:00,0.303,0.186,0.301,0.295,0.280,0.150,0.093,south,20.1,Yes
2018/09/04,20:10,0.302,0.187,0.301,0.292,0.279,0.150,0.093,south,20.0,No
2018/09/04,20:20,0.306,0.188,0.304,0.292,0.277,0.151,0.092,south,18.0,No
2018/09/04,20:30,0.305,0.188,0.306,0.294,0.279,0.151,0.092,south,17.7,No
2018/09/04,20:40,0.303,0.187,0.303,0.296,0.281,0.151,0.092,south,19.9,No
2018/09/04,20:50,0.301,0.187,0.301,0.292,0.280,0.151,0.093,south,20.4,No
2018/09/04,21:00,0.303,0.188,0.303,0.291,0.277,0.151,0.091,south,20.0,No
2018/09/04,21:10,0.307,0.188,0.305,0.294,0.277,0.151,0.092,south,22.4,No
2018/09/04,21:20,0.305,0.188,0.305,0.295,0.281,0.150,0.091,south,20.4,No
2018/09/04,21:30,0.301,0.187,0.303,0.294,0.280,0.151,0.092,south,23.0,No
2018/09/04,21:40,0.303,0.188,0.301,0.292,0.277,0.151,0.092,south,21.9,No
2018/09/04,21:50,0.307,0.188,0.306,0.291,0.277,0.151,0.092,south,21.0,No
2018/09/04,22:00,0.307,0.188,0.306,0.294,0.280,0.151,0.092,south,22.0,No
2018/09/04,22:10,0.304,0.186,0.303,0.295,0.279,0.151,0.092,south,25.5,No
2018/09/04,22:20,0.301,0.187,0.301,0.293,0.277,0.152,0.092,south,24.4,No
2018/09/04,22:30,0.306,0.190,0.304,0.292,0.276,0.151,0.092,south,23.8,No
2018/09/04,22:40,0.305,0.188,0.306,0.296,0.282,0.152,0.092,south,22.0,No
2018/09/04,22:50,0.305,0.187,0.306,0.296,0.281,0.152,0.092,south,22.8,No
2018/09/04,23:00,0.302,0.187,0.302,0.294,0.278,0.152,0.093,south,21.7,No
2018/09/04,23:10,0.304,0.189,0.303,0.292,0.278,0.151,0.092,south-southwest,18.1,No
2018/09/04,23:20,0.307,0.189,0.307,0.292,0.280,0.151,0.093,south-southwest,15.8,No
2018/09/04,23:30,0.305,0.188,0.305,0.296,0.280,0.151,0.093,south-southwest,13.3,No
2018/09/04,23:40,0.302,0.186,0.304,0.296,0.278,0.151,0.093,south,13.1,No
2018/09/04,23:50,0.301,0.189,0.302,0.294,0.277,0.150,0.092,south,11.7,No
